Location: ????????
(38.4362°N, 22.8767°E)
Time: 19:56:30
(UTC+00:00)

CZ-2C R/B - Pass Details

Date: 23 April 2024
Orbit: 783 x 869 km, 98.3° (Epoch: 26 May)

Event Time Altitude Azimuth Distance (km) Brightness Sun altitude
Exits shadow 02:00:27 19° 285° (WNW) 1,891 4.2 -18.6°
Drops below altitude 10° 02:03:03 10° 313° (NW) 2,416 4.9 -18.2°
Sets 02:06:01 0° 330° (NNW) 3,337 5.9 -17.7°
